Overview Statistics Trail Chart Weather Telemetry Raw packets
 

This is the latest recevied weather packets stored in our database for station/object EA1GHG-11. If no packets are shown the sender has not sent any weather packets the latest 10 day(s).

<< 7 8 9 10 11 12 13 >>
Time Temp. Humidity Pressure Rain* Wind** Luminosity Snow
1788277771 26.67° C 40% 1022.6 hPa - - - -
1788276271 26.11° C 49% 1022.7 hPa - - - -
1788274770 26.11° C 59% 1022.8 hPa - - - -
1788273326 26.11° C 79% 1022.9 hPa - - - -
1788273270 26.11° C 79% 1022.9 hPa - - - -
1788272669 26.11° C 86% 1023 hPa - - - -
1788271169 25.56° C 71% 1023.2 hPa - - - -
1788269669 24.44° C 75% 1023.3 hPa - - - -
1788268169 24.44° C 100% 1023.4 hPa - - - -
1788266669 24.44° C 100% 1023.6 hPa - - - -
1788265168 23.33° C 100% 1023.8 hPa - - - -
1788263668 21.67° C 100% 1024.5 hPa - - - -
1788262168 22.22° C 100% 1024.6 hPa - - - -
1788260668 20.56° C 100% 1024.8 hPa - - - -
1788259168 19.44° C 100% 1024.9 hPa - - - -
1788257668 18.33° C 100% 1025.2 hPa - - - -
1788256168 18.33° C 100% 1025.3 hPa - - - -
1788254668 17.78° C 100% 1025.3 hPa - - - -
1788253168 17.78° C 100% 1025.3 hPa - - - -
1788251667 16.67° C 100% 1025.2 hPa - - - -
1788251068 16.67° C 100% 1025.2 hPa - - - -
1788249568 15.56° C 100% 1025 hPa - - - -
1788248080 12.78° C 100% 1025.1 hPa - - - -
1788248068 12.78° C 100% 1025.1 hPa - - - -
1788246568 12.22° C 100% 1024.9 hPa - - - -

* Rain since midnight (hover to see other rain measurements)
** Current wind speed in m/s (hover to see current wind gust speed)